{"data":{"norad_id":52673,"epoch":"2026-09-19T18:34:53.143680Z","epoch_age_seconds":129117,"freshness":"FRESH","line1":"1 52673U 22053T   26262.77422620  .00000339  00000+0  20620-4 0  9991","line2":"2 52673  53.1618 351.5503 0001280  76.4781 283.6365 15.35403625240491","mean_motion":15.35403625,"eccentricity":0.000128,"inclination_deg":53.1618,"raan_deg":351.5503,"arg_perigee_deg":76.4781,"mean_anomaly_deg":283.6365,"bstar":2.062e-5,"rev_number":24049,"period_min":93.786413979581,"perigee_km":458.84663425452,"apogee_km":460.59712612785,"semimajor_km":6837.8588801912,"source":"CELESTRAK","updated_at":"2026-09-20T09:00:40.103579Z"}}